Time,TemperatureF,DewpointF,PressureIn,WindDirection,WindDirectionDegrees,WindSpeedMPH,WindSpeedGustMPH,Humidity,HourlyPrecipIn,Conditions,Clouds,dailyrainin,SolarRadiationWatts/m^2,SoftwareType,DateUTC
2013-07-19 00:01:00,53.0,51.0,-100.00,West,280,1.0,3.0,94,0.00,,,0.00,0.000000,,2013-07-19 07:01:00,
2013-07-19 00:12:00,53.0,51.0,-100.00,West,280,1.0,3.0,94,0.00,,,0.00,0.000000,,2013-07-19 07:12:00,
2013-07-19 00:22:00,53.0,51.0,-100.00,West,280,1.0,3.0,94,0.00,,,0.00,0.000000,,2013-07-19 07:22:00,
2013-07-19 00:32:00,53.0,51.0,-100.00,West,280,1.0,3.0,94,0.00,,,0.00,0.000000,,2013-07-19 07:32:00,
2013-07-19 00:53:00,55.0,52.0,-100.00,NNE,33,0.0,5.0,91,0.00,,,-99.99,0.000000,,2013-07-19 07:53:00,
2013-07-19 01:01:00,55.0,52.0,-100.00,NNE,33,0.0,5.0,91,0.00,,,-99.99,0.000000,,2013-07-19 08:01:00,
2013-07-19 01:11:00,55.0,52.0,-100.00,NNE,33,0.0,5.0,91,0.00,,,-99.99,0.000000,,2013-07-19 08:11:00,
2013-07-19 01:21:00,55.0,52.0,-100.00,NNE,33,0.0,5.0,91,0.00,,,-99.99,0.000000,,2013-07-19 08:21:00,
2013-07-19 01:32:00,55.0,52.0,-100.00,NNE,33,0.0,5.0,91,0.00,,,-99.99,0.000000,,2013-07-19 08:32:00,
2013-07-19 01:52:00,55.0,53.0,-100.00,NE,34,0.0,3.0,92,0.00,,,-99.99,0.000000,,2013-07-19 08:52:00,
2013-07-19 02:02:00,55.0,53.0,-100.00,NE,34,0.0,3.0,92,0.00,,,-99.99,0.000000,,2013-07-19 09:02:00,
2013-07-19 02:11:00,55.0,53.0,-100.00,NE,34,0.0,3.0,92,0.00,,,-99.99,0.000000,,2013-07-19 09:11:00,
2013-07-19 02:22:00,55.0,53.0,-100.00,NE,34,0.0,3.0,92,0.00,,,-99.99,0.000000,,2013-07-19 09:22:00,
2013-07-19 02:32:00,55.0,53.0,-100.00,NE,34,0.0,3.0,92,0.00,,,-99.99,0.000000,,2013-07-19 09:32:00,
2013-07-19 02:52:00,55.0,53.0,-100.00,NE,37,0.0,2.0,92,0.00,,,0.00,0.000000,,2013-07-19 09:52:00,
2013-07-19 03:01:00,55.0,53.0,-100.00,NE,37,0.0,2.0,92,0.00,,,0.00,0.000000,,2013-07-19 10:01:00,
2013-07-19 03:11:00,55.0,53.0,-100.00,NE,37,0.0,2.0,92,0.00,,,0.00,0.000000,,2013-07-19 10:11:00,
2013-07-19 03:22:00,55.0,53.0,-100.00,NE,37,0.0,2.0,92,0.00,,,0.00,0.000000,,2013-07-19 10:22:00,
2013-07-19 03:32:00,55.0,53.0,-100.00,NE,37,0.0,2.0,92,0.00,,,0.00,0.000000,,2013-07-19 10:32:00,
2013-07-19 03:52:00,55.0,53.0,-100.00,SSW,199,0.0,3.0,93,0.00,,,0.00,0.000000,,2013-07-19 10:52:00,
2013-07-19 04:02:00,55.0,53.0,-100.00,SSW,199,0.0,3.0,93,0.00,,,0.00,0.000000,,2013-07-19 11:02:00,
2013-07-19 04:12:00,55.0,53.0,-100.00,SSW,199,0.0,3.0,93,0.00,,,0.00,0.000000,,2013-07-19 11:12:00,
2013-07-19 04:22:00,55.0,53.0,-100.00,SSW,199,0.0,3.0,93,0.00,,,0.00,0.000000,,2013-07-19 11:22:00,
2013-07-19 04:32:00,55.0,53.0,-100.00,SSW,199,0.0,3.0,93,0.00,,,0.00,0.000000,,2013-07-19 11:32:00,
2013-07-19 05:01:00,55.0,53.0,-100.00,North,352,0.0,3.0,94,0.00,,,-99.99,0.000000,,2013-07-19 12:01:00,
2013-07-19 05:12:00,55.0,53.0,-100.00,North,352,0.0,3.0,94,0.00,,,-99.99,0.000000,,2013-07-19 12:12:00,
2013-07-19 05:22:00,55.0,53.0,-100.00,North,352,0.0,3.0,94,0.00,,,-99.99,0.000000,,2013-07-19 12:22:00,
2013-07-19 05:32:00,55.0,53.0,-100.00,North,352,0.0,3.0,94,0.00,,,-99.99,0.000000,,2013-07-19 12:32:00,
2013-07-19 06:02:00,55.0,54.0,-100.00,NNE,23,0.0,3.0,96,0.00,,,0.00,0.000000,,2013-07-19 13:02:00,
2013-07-19 06:11:00,55.0,54.0,-100.00,NNE,23,0.0,3.0,96,0.00,,,0.00,0.000000,,2013-07-19 13:11:00,
2013-07-19 06:22:00,55.0,54.0,-100.00,NNE,23,0.0,3.0,96,0.00,,,0.00,0.000000,,2013-07-19 13:22:00,
2013-07-19 06:32:00,55.0,54.0,-100.00,NNE,23,0.0,3.0,96,0.00,,,0.00,0.000000,,2013-07-19 13:32:00,
2013-07-19 06:33:00,55.0,54.0,-100.00,NW,323,1.0,3.0,97,0.00,,,0.00,4.000000,,2013-07-19 13:33:00,
2013-07-19 07:02:00,55.0,54.0,-100.00,NW,323,1.0,3.0,97,0.00,,,0.00,4.000000,,2013-07-19 14:02:00,
2013-07-19 07:11:00,55.0,54.0,-100.00,NW,323,1.0,3.0,97,0.00,,,0.00,4.000000,,2013-07-19 14:11:00,
2013-07-19 07:22:00,55.0,54.0,-100.00,NW,323,1.0,3.0,97,0.00,,,0.00,4.000000,,2013-07-19 14:22:00,
2013-07-19 08:02:00,55.0,53.0,-100.00,NW,319,1.0,5.0,93,0.00,,,0.00,21.000000,,2013-07-19 15:02:00,
2013-07-19 08:11:00,55.0,53.0,-100.00,NW,319,1.0,5.0,93,0.00,,,0.00,21.000000,,2013-07-19 15:11:00,
2013-07-19 08:22:00,55.0,53.0,-100.00,NW,319,1.0,5.0,93,0.00,,,0.00,21.000000,,2013-07-19 15:22:00,
2013-07-19 08:32:00,55.0,53.0,-100.00,NW,319,1.0,5.0,93,0.00,,,0.00,21.000000,,2013-07-19 15:32:00,
2013-07-19 09:01:00,56.0,53.0,-100.00,North,2,1.0,6.0,91,0.00,,,0.00,49.000000,,2013-07-19 16:01:00,
2013-07-19 09:11:00,56.0,53.0,-100.00,North,2,1.0,6.0,91,0.00,,,0.00,49.000000,,2013-07-19 16:11:00,
2013-07-19 09:22:00,56.0,53.0,-100.00,North,2,1.0,6.0,91,0.00,,,0.00,49.000000,,2013-07-19 16:22:00,
2013-07-19 09:32:00,56.0,53.0,-100.00,North,2,1.0,6.0,91,0.00,,,0.00,49.000000,,2013-07-19 16:32:00,
2013-07-19 09:53:00,56.0,53.0,-100.00,NNW,347,1.0,5.0,89,0.00,,,0.00,78.000000,,2013-07-19 16:53:00,
2013-07-19 10:02:00,56.0,53.0,-100.00,NNW,347,1.0,5.0,89,0.00,,,0.00,78.000000,,2013-07-19 17:02:00,
2013-07-19 10:12:00,56.0,53.0,-100.00,NNW,347,1.0,5.0,89,0.00,,,0.00,78.000000,,2013-07-19 17:12:00,
2013-07-19 10:22:00,56.0,53.0,-100.00,NNW,347,1.0,5.0,89,0.00,,,0.00,78.000000,,2013-07-19 17:22:00,
2013-07-19 10:32:00,56.0,53.0,-100.00,NNW,347,1.0,5.0,89,0.00,,,0.00,78.000000,,2013-07-19 17:32:00,
2013-07-19 11:01:00,57.0,54.0,-100.00,WNW,301,2.0,5.0,90,0.00,,,0.00,100.000000,,2013-07-19 18:01:00,
2013-07-19 11:11:00,57.0,54.0,-100.00,WNW,301,2.0,5.0,90,0.00,,,0.00,100.000000,,2013-07-19 18:11:00,
2013-07-19 11:21:00,57.0,54.0,-100.00,WNW,301,2.0,5.0,90,0.00,,,0.00,100.000000,,2013-07-19 18:21:00,
2013-07-19 11:32:00,57.0,54.0,-100.00,WNW,301,2.0,5.0,90,0.00,,,0.00,100.000000,,2013-07-19 18:32:00,
2013-07-19 12:01:00,58.0,54.0,-100.00,West,265,4.0,7.0,87,0.00,,,0.00,152.000000,,2013-07-19 19:01:00,
2013-07-19 12:11:00,58.0,54.0,-100.00,West,265,4.0,7.0,87,0.00,,,0.00,152.000000,,2013-07-19 19:11:00,
2013-07-19 12:21:00,58.0,54.0,-100.00,West,265,4.0,7.0,87,0.00,,,0.00,152.000000,,2013-07-19 19:21:00,
2013-07-19 12:32:00,58.0,54.0,-100.00,West,265,4.0,7.0,87,0.00,,,0.00,152.000000,,2013-07-19 19:32:00,
2013-07-19 13:01:00,60.0,55.0,-100.00,West,270,2.0,7.0,83,0.00,,,0.00,218.000000,,2013-07-19 20:01:00,
2013-07-19 13:11:00,60.0,55.0,-100.00,West,270,2.0,7.0,83,0.00,,,0.00,218.000000,,2013-07-19 20:11:00,
2013-07-19 13:22:00,60.0,55.0,-100.00,West,270,2.0,7.0,83,0.00,,,0.00,218.000000,,2013-07-19 20:22:00,
2013-07-19 13:32:00,60.0,55.0,-100.00,West,270,2.0,7.0,83,0.00,,,0.00,218.000000,,2013-07-19 20:32:00,
2013-07-19 14:01:00,62.0,54.0,-100.00,West,275,3.0,7.0,76,0.00,,,0.00,289.000000,,2013-07-19 21:01:00,
2013-07-19 14:11:00,62.0,54.0,-100.00,West,275,3.0,7.0,76,0.00,,,0.00,289.000000,,2013-07-19 21:11:00,
2013-07-19 14:21:00,62.0,54.0,-100.00,West,275,3.0,7.0,76,0.00,,,0.00,289.000000,,2013-07-19 21:21:00,
2013-07-19 14:32:00,62.0,54.0,-100.00,West,275,3.0,7.0,76,0.00,,,0.00,289.000000,,2013-07-19 21:32:00,
2013-07-19 15:01:00,62.0,55.0,-100.00,West,270,3.0,7.0,77,0.00,,,0.00,351.000000,,2013-07-19 22:01:00,
2013-07-19 15:11:00,62.0,55.0,-100.00,West,270,3.0,7.0,77,0.00,,,0.00,351.000000,,2013-07-19 22:11:00,
2013-07-19 15:21:00,62.0,55.0,-100.00,West,270,3.0,7.0,77,0.00,,,0.00,351.000000,,2013-07-19 22:21:00,
2013-07-19 15:32:00,62.0,55.0,-100.00,West,270,3.0,7.0,77,0.00,,,0.00,351.000000,,2013-07-19 22:32:00,
2013-07-19 16:01:00,62.0,54.0,-100.00,WNW,289,2.0,9.0,76,0.00,,,0.00,323.000000,,2013-07-19 23:01:00,
2013-07-19 16:11:00,62.0,54.0,-100.00,WNW,289,2.0,9.0,76,0.00,,,0.00,323.000000,,2013-07-19 23:11:00,
2013-07-19 16:21:00,62.0,54.0,-100.00,WNW,289,2.0,9.0,76,0.00,,,0.00,323.000000,,2013-07-19 23:21:00,
2013-07-19 16:32:00,62.0,54.0,-100.00,WNW,289,2.0,9.0,76,0.00,,,0.00,323.000000,,2013-07-19 23:32:00,
2013-07-19 17:01:00,64.0,54.0,-100.00,West,278,3.0,10.0,71,0.00,,,0.00,381.000000,,2013-07-20 00:01:00,
2013-07-19 17:11:00,64.0,54.0,-100.00,West,278,3.0,10.0,71,0.00,,,0.00,381.000000,,2013-07-20 00:11:00,
2013-07-19 17:21:00,64.0,54.0,-100.00,West,278,3.0,10.0,71,0.00,,,0.00,381.000000,,2013-07-20 00:21:00,
2013-07-19 17:32:00,64.0,54.0,-100.00,West,278,3.0,10.0,71,0.00,,,0.00,381.000000,,2013-07-20 00:32:00,
2013-07-19 18:01:00,66.0,55.0,-100.00,West,281,2.0,10.0,67,0.00,,,-99.99,634.000000,,2013-07-20 01:01:00,
2013-07-19 18:11:00,66.0,55.0,-100.00,West,281,2.0,10.0,67,0.00,,,-99.99,634.000000,,2013-07-20 01:11:00,
2013-07-19 18:22:00,66.0,55.0,-100.00,West,281,2.0,10.0,67,0.00,,,-99.99,634.000000,,2013-07-20 01:22:00,
2013-07-19 19:01:00,60.0,53.0,-100.00,NW,305,3.0,10.0,78,0.00,,,0.00,393.000000,,2013-07-20 02:01:00,
2013-07-19 19:11:00,60.0,53.0,-100.00,NW,305,3.0,10.0,78,0.00,,,0.00,393.000000,,2013-07-20 02:11:00,
2013-07-19 19:21:00,60.0,53.0,-100.00,NW,305,3.0,10.0,78,0.00,,,0.00,393.000000,,2013-07-20 02:21:00,
2013-07-19 19:32:00,60.0,53.0,-100.00,NW,305,3.0,10.0,78,0.00,,,0.00,393.000000,,2013-07-20 02:32:00,
2013-07-19 20:02:00,57.0,53.0,-100.00,West,262,2.0,8.0,87,0.00,,,0.00,88.000000,,2013-07-20 03:02:00,
2013-07-19 20:11:00,57.0,53.0,-100.00,West,262,2.0,8.0,87,0.00,,,0.00,88.000000,,2013-07-20 03:11:00,
2013-07-19 20:22:00,57.0,53.0,-100.00,West,262,2.0,8.0,87,0.00,,,0.00,88.000000,,2013-07-20 03:22:00,
2013-07-19 20:32:00,57.0,53.0,-100.00,West,262,2.0,8.0,87,0.00,,,0.00,88.000000,,2013-07-20 03:32:00,
2013-07-19 20:33:00,55.0,52.0,-100.00,NW,314,2.0,6.0,90,0.00,,,0.00,17.000000,,2013-07-20 03:33:00,
2013-07-19 20:53:00,55.0,52.0,-100.00,NW,314,2.0,6.0,90,0.00,,,0.00,17.000000,,2013-07-20 03:53:00,
2013-07-19 21:01:00,55.0,52.0,-100.00,NW,314,2.0,6.0,90,0.00,,,0.00,17.000000,,2013-07-20 04:01:00,
2013-07-19 21:11:00,55.0,52.0,-100.00,NW,314,2.0,6.0,90,0.00,,,0.00,17.000000,,2013-07-20 04:11:00,
2013-07-19 21:22:00,55.0,52.0,-100.00,NW,314,2.0,6.0,90,0.00,,,0.00,17.000000,,2013-07-20 04:22:00,
2013-07-19 22:02:00,55.0,53.0,-100.00,NW,314,2.0,5.0,92,0.00,,,0.00,2.000000,,2013-07-20 05:02:00,
2013-07-19 22:11:00,55.0,53.0,-100.00,NW,314,2.0,5.0,92,0.00,,,0.00,2.000000,,2013-07-20 05:11:00,
2013-07-19 22:22:00,55.0,53.0,-100.00,NW,314,2.0,5.0,92,0.00,,,0.00,2.000000,,2013-07-20 05:22:00,
2013-07-19 22:32:00,55.0,53.0,-100.00,NW,314,2.0,5.0,92,0.00,,,0.00,2.000000,,2013-07-20 05:32:00,
2013-07-19 23:01:00,54.0,52.0,-100.00,NW,326,1.0,7.0,92,0.00,,,0.00,0.000000,,2013-07-20 06:01:00,
2013-07-19 23:11:00,54.0,52.0,-100.00,NW,326,1.0,7.0,92,0.00,,,0.00,0.000000,,2013-07-20 06:11:00,
2013-07-19 23:21:00,54.0,52.0,-100.00,NW,326,1.0,7.0,92,0.00,,,0.00,0.000000,,2013-07-20 06:21:00,
2013-07-19 23:32:00,54.0,52.0,-100.00,NW,326,1.0,7.0,92,0.00,,,0.00,0.000000,,2013-07-20 06:32:00,
2013-07-19 23:33:00,54.0,51.0,-100.00,NNW,340,1.0,5.0,91,0.00,,,0.00,0.000000,,2013-07-20 06:33:00,
2013-07-19 23:52:00,54.0,51.0,-100.00,NNW,340,1.0,5.0,91,0.00,,,0.00,0.000000,,2013-07-20 06:52:00,